Home   Weather   Cuzco   Past weeks

Flag for Peru Past Weather in Cuzco, Cusco, Peru — Yesterday and Last 2 Weeks

Now
54 °F

Clear.


Feels Like: 53 °F
Forecast: 43 / 59 °F
Wind: 3 mph from North

Location: Cuzco Airport

Current Time: Sep 30, 2016 at 10:17:41 PM

Latest Report: Sep 30, 2016 at 9:00 PM


Visibility: N/A

Pressure: 30.42 "Hg (20.29 "Hg at 3379m altitude)

Humidity: 54%

Dew Point: 37 °F

Location of CuzcoLocation

Past Weather in Cuzco — Graph

°F

Cuzco Temperature Yesterday

Maximum temperature yesterday: 70 °F (at 11:00 AM)
Minimum temperature yesterday: 41 °F (at 6:00 AM)
Average temperature yesterday: 56 °F

High & Low Weather Summary for the Past Weeks

 TemperatureHumidityPressure
High73 °F (Sep 18, 1:00 PM)93% (Sep 28, 3:00 AM)30.63 "Hg (Sep 28, 3:00 AM)
Low37 °F (Sep 18, 6:00 AM)10% (Sep 18, 1:00 PM)30.30 "Hg (Sep 26, 2:00 PM)
Average55 °F51%30.49 "Hg
* Reported Sep 15 9:00 PM — Sep 30 9:00 PM, Cuzco, Weather by CustomWeather, © 2016

Note: Actual official high and low records may vary slightly from our data, if they occured in-between our weather recording intervals... More about our weather records

Advertising

Cuzco Weather History for the Previous 24 Hours

Scroll right to see more
 ConditionsComfort  
Time TempWeatherWind HumidityBarometerVisibility
9:00 PM
Fri, Sep 30
54 °FClear.3 mph54%30.42 "HgN/A
8:00 PM57 °FClear.8 mph48%30.39 "HgN/A
7:00 PM61 °FClear.8 mph42%30.36 "HgN/A
6:00 PM63 °FClear.9 mph37%30.33 "HgN/A
5:00 PM66 °FScattered clouds.12 mph32%30.30 "HgN/A
4:00 PM66 °FScattered clouds.9 mph28%30.30 "HgN/A
3:00 PM68 °FScattered clouds.15 mph28%30.30 "HgN/A
2:00 PM68 °FBroken clouds.18 mph33%30.36 "HgN/A
1:00 PM70 °FBroken clouds.No wind21%30.36 "HgN/A
9:00 AM59 °FScattered clouds.2 mph45%30.51 "HgN/A
8:00 AM52 °FScattered clouds.2 mph62%30.54 "HgN/A
7:00 AM48 °FScattered clouds.2 mph71%30.51 "HgN/A
6:00 AM43 °FScattered clouds.No wind76%30.48 "HgN/A
5:00 AM43 °FPassing clouds.2 mph76%30.45 "HgN/A
4:00 AM45 °FPassing clouds.No wind71%30.45 "HgN/A
3:00 AM45 °FPassing clouds.3 mph76%30.45 "HgN/A
2:00 AM46 °FPassing clouds.No wind71%30.45 "HgN/A
1:00 AM46 °FPassing clouds.2 mph71%30.45 "HgN/A
12:00 AM50 °FPassing clouds.2 mph62%30.48 "HgN/A
11:00 PM
Thu, Sep 29
52 °FPassing clouds.2 mph58%30.51 "HgN/A
10:00 PM55 °FPassing clouds.2 mph51%30.51 "HgN/A
Weather by CustomWeather, © 2016

See weather overviewHow to use our weather pages